Location: Cuguron
(43.0994°N, 0.5363°E)
Time: 11:03:41
(UTC+00:00)

Okean O Rocket - Pass Details

Date: 15 May 2026
Orbit: 614 x 633 km, 98.0° (Epoch: 5 June)

Event Time Altitude Azimuth Distance (km) Brightness Sun altitude
Exits shadow 21:29:45 18° 209° (SSW) 1,507 3.3 -19.6°
Maximum altitude 21:32:16 33° 263° (W) 1,039 2.9 -19.8°
Drops below altitude 10° 21:36:11 10° 328° (NNW) 1,981 5.4 -20.2°
Sets 21:38:33 0° 338° (NNW) 2,893 6.5 -20.5°
